Regional Weather Roundup
Issued by NWS

Home | Current Version | Previous Version | Graphics & Text | Print | Product List | Glossary On
Versions: 1 2 3 4 5 6 7 8 9 10 11 12 13 14 15 16 17 18 19 20 21 22 23 24 25 26 27 28 29 30 31 32 33 34 35 36 37 38 39 40 41 42 43 44 45 46 47 48 49 50
000
ASUS43 KFSD 180802
RWRSD

WEATHER ROUNDUP FOR SOUTH DAKOTA
NATIONAL WEATHER SERVICE SIOUX FALLS SD
200 AM CST THU DEC 18 2014

NOTE: "FAIR" INDICATES FEW OR NO CLOUDS BELOW 12,000 FEET WITH NO
SIGNIFICANT WEATHER AND/OR OBSTRUCTIONS TO VISIBILITY.


SDZ001>005-009-010-012>017-180900-
NORTHWEST AND NORTH CENTRAL SOUTH DAKOTA

CITY           SKY/WX    TMP DP  RH WIND       PRES   REMARKS
BUFFALO          N/A     23  20  88 S7        29.90F WCI  15
FAITH            N/A     21  16  81 SE8       30.05S WCI  11
MOBRIDGE       CLOUDY    18  15  88 E9        30.11F WCI   7
$$

SDZ012>016-024>037-041>051-057-063-072>074-180900-
SOUTHWEST AND SOUTH CENTRAL SOUTH DAKOTA

CITY           SKY/WX    TMP DP  RH WIND       PRES   REMARKS
RAPID CTY ARPT CLOUDY    22  20  92 S8        29.99F WCI  12
PIERRE         CLOUDY    19  17  92 SE9       30.12F FOG     WCI   8
CUSTER         CLEAR     23  16  74 NW3       29.90S
ELLSWORTH AFB  CLOUDY    22  20  92 S6        29.98F WCI  15
PHILIP         CLOUDY    23  20  88 NE6       30.06F WCI  16
PINE RIDGE     CLOUDY    17  14  88 S8        30.01F WCI   7
WINNER         CLOUDY    23  20  88 SE10      30.11F WCI  12
$$

SDZ004>011-016>023-039-040-180900-
NORTHEAST SOUTH DAKOTA

CITY           SKY/WX    TMP DP  RH WIND       PRES   REMARKS
ABERDEEN       CLOUDY    17  12  80 SE7       30.24F WCI   8
WATERTOWN      CLOUDY    10   5  80 SE3       30.22S
SISSETON         N/A      1  -3  83 CALM      30.27F
$$

SDZ017-020-022-023-036>040-048>070-180900-
SOUTHEAST SOUTH DAKOTA

CITY           SKY/WX    TMP DP  RH WIND       PRES   REMARKS
SIOUX FALLS    CLOUDY    15  12  88 NE5       30.24F WCI   8
HURON          CLOUDY    15  11  83 SE7       30.22F WCI   5
MITCHELL       CLOUDY    17  13  84 SE6       30.23F WCI   9
YANKTON        CLOUDY    19  16  86 CALM      30.24F
$$

ABBREVIATIONS USED IN REMARKS
   TC - TEMPERATURE IN CELSIUS
  WCI - WIND CHILL INDEX
   HX - HEAT INDEX
  VSB - VISIBILITY




USA.gov is the U.S. government's official web portal to all federal, state and local government web resources and services.